Regional Weather Roundup
Issued by NWS Kansas City/Pleasant Hill, MO

Home | Current Version | Previous Version | Text Only | Print | Product List | Glossary On
Versions: 1 2 3 4 5 6 7 8 9 10 11 12 13 14 15 16 17 18 19 20 21 22 23 24 25 26 27 28 29 30 31 32 33 34 35 36 37 38 39 40 41 42 43 44 45 46 47 48 49 50
000
ASUS43 KEAX 160704
RWREAX

WEATHER ROUNDUP FOR EASTERN KANSAS AND NORTHWEST MISSOURI
NATIONAL WEATHER SERVICE KANSAS CITY/PLEASANT HILL MO
200 AM CDT TUE SEP 16 2014

KSZ040-057-103>105-MOZ028-029-037-043-160800-
...KANSAS CITY METROPOLITAN AREA...

CITY           SKY/WX    TMP DP  RH WIND       PRES   REMARKS
K.C. INTL      CLEAR     48  47  96 N7        30.25S
K.C. DOWNTOWN  CLEAR     52  48  86 CALM      30.25R
LEES SUMMIT    CLEAR     51  49  92 N6        30.25R
OLATHE - IXD   CLEAR     49  48  97 N6        30.25S
OLATHE - OJC   CLEAR     53  50  89 N3        30.24S
LAWRENCE       CLEAR     48  46  93 N3        30.26S

$$

MOZ001>008-011>017-020>025-030>033-038>040-044>046-053-054-160800-
...NORTHERN AND CENTRAL MISSOURI...

CITY           SKY/WX    TMP DP  RH WIND       PRES   REMARKS
ST. JOSEPH     MOCLDY    49  47  93 N5        30.27R
MOSBY          SUNNY     46  46 100 CALM      30.25S
WHITEMAN AFB   CLOUDY    56  51  86 N7        30.22S
CLINTON        CLOUDY    57  54  88 CALM      30.23R
SEDALIA        CLOUDY    58  53  84 N6        30.23R
WARSAW         NOT AVBL
MARSHALL       CLOUDY    57  54  88 CALM      30.24S
CHILLICOTHE      N/A     49  47  93 CALM      30.26S
KIRKSVILLE     CLEAR     50  47  89 N5        30.25R

$$

MOZ041-047>049-056>058-063>065-088>090-097-160800-
...EASTERN AND SOUTHERN MISSOURI...

CITY           SKY/WX    TMP DP  RH WIND       PRES   REMARKS
ST. LOUIS INTL CLOUDY    60  56  86 NE9       30.19R
SPIRIT OF STL  CLOUDY    60  56  86 NE6       30.18R
COLUMBIA       CLOUDY    59  55  87 N7        30.21S
JEFFERSON CITY CLOUDY    61  56  83 N6        30.21R
MEXICO         CLOUDY    59  57  94 NE9       30.22R
ROLLA          CLOUDY    61  57  87 NE5       30.18S
OSAGE BEACH    CLOUDY    61  55  82 NE8       30.20R
SPRINGFIELD    CLOUDY    66  59  78 NE10      30.18R
BRANSON        MOCLDY    68  64  88 NW5       30.17S
NEVADA         CLOUDY    59  54  82 N9        30.23
JOPLIN         CLOUDY    64  60  87 NE6       30.19R
WEST PLAINS    CLOUDY    67  64  90 N5        30.17R FOG

$$

IAZ060-094-KSZ022-034>040-054-083-096-NEZ052-066-093-160800-
...KANSAS...SOUTHEAST NEBRASKA AND IOWA...

CITY           SKY/WX    TMP DP  RH WIND       PRES   REMARKS
TOPEKA         CLEAR     52  49  89 CALM      30.27R
MANHATTAN      CLEAR     52  48  86 NE3       30.27S
EMPORIA        CLOUDY    53  51  93 NE6       30.24S
CHANUTE        CLOUDY    61  54  77 N13       30.21R
WICHITA        MOCLDY    63  53  70 NE12      30.23R
OMAHA          PTCLDY    48  46  93 CALM      30.28R FOG
LINCOLN        CLEAR     43  41  93 CALM      30.29R
FALLS CITY     CLEAR     46  44  93 W3        30.27R
LAMONI         CLEAR     47  45  93 CALM      30.25S
DES MOINES     CLEAR     49  44  83 CALM      30.25S

$$



USA.gov is the U.S. government's official web portal to all federal, state and local government web resources and services.